Change the Weather History Date:

Monday, May 20, 2013

  Actual Average Record
Temperature  
Mean Temperature 48 °F -  
Max Temperature 50 °F 65 °F 84 °F (2005)
Min Temperature 46 °F 43 °F 24 °F (2003)
Degree Days  
Heating Degree Days 16    
Moisture  
Dew Point 47 °F    
Average Humidity 92    
Maximum Humidity 100    
Minimum Humidity 82    
Precipitation  
Precipitation 0.38 in - - ()
Sea Level Pressure  
Sea Level Pressure 29.71 in    
Wind  
Wind Speed 33 mph (NNW)    
Max Wind Speed 45 mph    
Max Gust Speed 55 mph    
Visibility 8 miles    
Events Rain    
Averages and records for this station are not official NWS values.
T = Trace of Precipitation, MM = Missing Value Source: NWS Daily Summary

Daily Weather History Graph

Daily Weather History Graph

Search for Another Location

Airport or City:

Trip Planner

Search our weather history database for the weather conditions in past years. The results will help you decide how hot, cold, wet, or windy it might be!

Date:

Astronomy

May. 20, 2013 Rise Set
Actual Time 5:20 AM MDT 8:17 PM MDT
Civil Twilight 4:46 AM MDT 8:52 PM MDT
Nautical Twilight 4:02 AM MDT 9:36 PM MDT
Astronomical Twilight 3:11 AM MDT 10:27 PM MDT
Moon 3:18 PM MDT (5/20) 2:27 AM MDT (5/20)
Length of Visible Light 16h 05m
Length of Day
14h 57m
Waxing Gibbous, 75% of the Moon is Illuminated
May 20
Waxing Gibbous
May 24
Full
May 31
Last Quarter
Jun 8
New
Jun 16
First Quarter

Hourly Weather History & Observations

Time (MDT) Temp. Windchill Dew Point Humidity Pressure Visibility Wind Dir Wind Speed Gust Speed Precip Events Conditions
12:35 AM 50.0 °F - 46.4 °F 87% 29.64 in 10.0 mi NNW 31.1 mph 42.6 mph N/A   Squalls
12:47 AM 50.0 °F - 46.4 °F 87% 29.63 in 10.0 mi NNW 28.8 mph 36.8 mph N/A Rain Light Rain
12:56 AM 50.0 °F - 46.4 °F 87% 29.63 in 10.0 mi NW 29.9 mph 40.3 mph N/A   Light Drizzle
12:57 AM 50.0 °F - 46.4 °F 87% 29.63 in 10.0 mi NW 28.8 mph 40.3 mph N/A   Overcast
12:58 AM 50.0 °F - 46.4 °F 87% 29.62 in 10.0 mi NW 28.8 mph 40.3 mph 0.00 in   Overcast
1:03 AM 50.0 °F - 46.4 °F 87% 29.63 in 10.0 mi NW 31.1 mph 40.3 mph N/A   Overcast
1:28 AM 50.0 °F - 46.4 °F 87% 29.62 in 10.0 mi NNW 31.1 mph 43.7 mph N/A   Overcast
1:43 AM 50.0 °F - 46.4 °F 87% 29.62 in 10.0 mi NNW 31.1 mph 46.0 mph N/A   Overcast
1:58 AM 49.8 °F - 45.9 °F 86% 29.62 in 10.0 mi NNW 29.9 mph 43.7 mph 0.00 in   Overcast
2:13 AM 50.0 °F - 46.4 °F 87% 29.61 in 10.0 mi NNW 33.4 mph 43.7 mph N/A   Overcast
2:23 AM 50.0 °F - 46.4 °F 87% 29.62 in 10.0 mi NNW 31.1 mph 43.7 mph N/A   Light Drizzle
2:28 AM 50.0 °F - 46.4 °F 87% 29.61 in 10.0 mi NNW 34.5 mph 43.7 mph N/A Rain Light Rain
2:37 AM 50.0 °F - 46.4 °F 87% 29.61 in 10.0 mi NNW 34.5 mph 41.4 mph N/A   Overcast
2:51 AM 50.0 °F - 44.6 °F 82% 29.60 in 10.0 mi NNW 33.4 mph 44.9 mph N/A   Light Drizzle
2:58 AM 49.5 °F - 45.7 °F 87% 29.57 in 10.0 mi NW 36.8 mph 44.9 mph 0.00 in Rain Light Rain
3:58 AM 48.7 °F - 46.2 °F 91% 29.59 in 10.0 mi NNW 34.5 mph 47.2 mph 0.06 in Rain Light Rain
4:17 AM 48.2 °F - 46.4 °F 93% 29.58 in 8.0 mi NNW 36.8 mph 47.2 mph N/A Rain Rain
4:52 AM 48.2 °F - 46.4 °F 93% 29.58 in 10.0 mi NNW 35.7 mph 42.6 mph N/A   Overcast
4:58 AM 48.6 °F - 46.2 °F 92% 29.59 in 10.0 mi NNW 33.4 mph 43.7 mph 0.02 in   Overcast
5:03 AM 48.2 °F - 46.4 °F 93% 29.58 in 10.0 mi NNW 36.8 mph 47.2 mph N/A   Light Drizzle
5:38 AM 48.2 °F - 46.4 °F 93% 29.59 in 10.0 mi NNW 36.8 mph 46.0 mph N/A Rain Light Rain
5:43 AM 48.2 °F - 46.4 °F 93% 29.59 in 10.0 mi NNW 36.8 mph 47.2 mph N/A Rain Light Rain
5:52 AM 48.2 °F - 46.4 °F 93% 29.59 in 10.0 mi NNW 36.8 mph 47.2 mph N/A   Overcast
5:58 AM 48.2 °F - 46.4 °F 93% 29.58 in 10.0 mi NNW 39.1 mph 48.3 mph 0.01 in   Overcast
6:03 AM 48.2 °F - 46.4 °F 93% 29.59 in 10.0 mi NNW 39.1 mph 48.3 mph N/A   Overcast
6:07 AM 48.2 °F - 44.6 °F 87% 29.59 in 10.0 mi NNW 34.5 mph 50.6 mph N/A   Light Drizzle
6:12 AM 48.2 °F - 44.6 °F 87% 29.59 in 10.0 mi NNW 40.3 mph 50.6 mph N/A Rain Light Rain
6:23 AM 48.2 °F - 44.6 °F 87% 29.59 in 10.0 mi NNW 34.5 mph 54.1 mph N/A Rain Light Rain
6:28 AM 48.2 °F - 44.6 °F 87% 29.59 in 10.0 mi NNW 38.0 mph 52.9 mph N/A Rain Light Rain
6:33 AM 48.2 °F - 44.6 °F 87% 29.59 in 9.0 mi NNW 40.3 mph 52.9 mph N/A Rain Light Rain
6:58 AM 48.4 °F - 45.5 °F 90% 29.61 in 10.0 mi NW 38.0 mph 50.6 mph 0.00 in Rain Light Rain
7:01 AM 48.2 °F - 46.4 °F 93% 29.60 in 7.0 mi NNW 44.9 mph 55.2 mph N/A Rain Light Rain
7:10 AM 48.2 °F - 46.4 °F 93% 29.61 in 3.0 mi NNW 39.1 mph 55.2 mph N/A   Overcast
7:11 AM 48.2 °F - 46.4 °F 93% 29.61 in 2.5 mi NNW 39.1 mph 55.2 mph N/A Rain Light Rain
7:16 AM 48.2 °F - 46.4 °F 93% 29.61 in 2.0 mi NNW 39.1 mph 52.9 mph N/A Rain Rain
7:21 AM 48.2 °F - 46.4 °F 93% 29.61 in 2.0 mi NNW 36.8 mph 48.3 mph N/A Rain Light Rain
7:26 AM 48.2 °F - 46.4 °F 93% 29.62 in 3.0 mi NNW 35.7 mph 48.3 mph N/A Rain Light Rain
7:31 AM 48.2 °F - 46.4 °F 93% 29.61 in 4.0 mi NNW 38.0 mph 44.9 mph N/A Rain Light Rain
7:46 AM 48.2 °F - 46.4 °F 93% 29.61 in 5.0 mi NNW 39.1 mph 50.6 mph N/A   Overcast
7:58 AM 47.8 °F - 46.2 °F 94% 29.64 in 3.0 mi NNW 33.4 mph 51.8 mph 0.02 in   Overcast
8:02 AM 48.2 °F - 46.4 °F 93% 29.63 in 3.0 mi NNW 34.5 mph 51.8 mph N/A Rain Light Rain
8:22 AM 48.2 °F - 46.4 °F 93% 29.64 in 2.5 mi NNW 36.8 mph 47.2 mph N/A Rain Light Rain
8:27 AM 48.2 °F - 46.4 °F 93% 29.63 in 2.0 mi NNW 39.1 mph 47.2 mph N/A Rain Rain
8:32 AM 48.2 °F - 46.4 °F 93% 29.64 in 1.8 mi NNW 35.7 mph 46.0 mph N/A Rain Rain
8:42 AM 48.2 °F - 46.4 °F 93% 29.64 in 2.0 mi NNW 33.4 mph 43.7 mph N/A Rain Light Rain
8:47 AM 48.2 °F - 46.4 °F 93% 29.64 in 2.5 mi NNW 39.1 mph 50.6 mph N/A Rain Light Rain
8:58 AM 48.2 °F - 46.4 °F 93% 29.65 in 3.0 mi NNW 35.7 mph 50.6 mph 0.02 in Rain Light Rain
9:00 AM 48.2 °F - 46.4 °F 93% 29.64 in 4.0 mi NNW 35.7 mph 48.3 mph N/A   Overcast
9:05 AM 48.2 °F - 46.4 °F 93% 29.64 in 4.0 mi NNW 38.0 mph 48.3 mph N/A   Overcast
9:09 AM 48.2 °F - 46.4 °F 93% 29.64 in 3.0 mi NNW 38.0 mph 48.3 mph N/A Rain Light Rain
9:14 AM 48.2 °F - 46.4 °F 93% 29.64 in 2.5 mi NNW 41.4 mph 48.3 mph N/A Rain Light Rain
9:34 AM 48.2 °F - 48.2 °F 100% 29.65 in 3.0 mi NNW 36.8 mph 49.5 mph N/A Rain Light Rain
9:46 AM 48.2 °F - 48.2 °F 100% 29.66 in 4.0 mi NNW 36.8 mph 43.7 mph N/A   Overcast
9:50 AM 48.2 °F - 48.2 °F 100% 29.66 in 4.0 mi NNW 33.4 mph 43.7 mph N/A Rain Light Rain
9:58 AM 48.7 °F - 47.7 °F 96% 29.67 in 4.0 mi NNW 35.7 mph 46.0 mph 0.01 in Rain Light Rain
10:00 AM 48.2 °F - 48.2 °F 100% 29.66 in 4.0 mi NNW 34.5 mph 46.0 mph N/A   Overcast
10:03 AM 48.2 °F - 48.2 °F 100% 29.67 in 4.0 mi NNW 31.1 mph 46.0 mph N/A Rain Light Rain
10:36 AM 48.2 °F - 46.4 °F 93% 29.69 in 10.0 mi NNW 35.7 mph 43.7 mph N/A   Overcast
10:39 AM 48.2 °F - 46.4 °F 93% 29.69 in 10.0 mi NNW 34.5 mph 43.7 mph N/A   Light Drizzle
10:44 AM 48.2 °F - 46.4 °F 93% 29.69 in 10.0 mi NNW 32.2 mph 43.7 mph N/A   Light Drizzle
10:58 AM 48.2 °F - 46.4 °F 93% 29.70 in 10.0 mi NNW 33.4 mph 42.6 mph 0.00 in Rain Light Rain
11:18 AM 48.2 °F - 46.4 °F 93% 29.70 in 5.0 mi NNW 35.7 mph 43.7 mph N/A Rain Light Rain
11:23 AM 48.2 °F - 48.2 °F 100% 29.69 in 8.0 mi NNW 35.7 mph 43.7 mph N/A Rain Light Rain
11:27 AM 50.0 °F - 48.2 °F 94% 29.70 in 4.0 mi NNW 31.1 mph 43.7 mph N/A Rain Rain
11:37 AM 50.0 °F - 48.2 °F 94% 29.70 in 3.0 mi NNW 34.5 mph 44.9 mph N/A Rain Light Rain
11:42 AM 50.0 °F - 48.2 °F 94% 29.70 in 5.0 mi NNW 33.4 mph 44.9 mph N/A Rain Light Rain
11:52 AM 50.0 °F - 48.2 °F 94% 29.70 in 5.0 mi NNW 33.4 mph 43.7 mph N/A Rain Light Rain
11:58 AM 49.6 °F - 48.0 °F 94% 29.71 in 4.0 mi NNW 32.2 mph 43.7 mph 0.03 in Rain Light Rain
12:08 PM 50.0 °F - 48.2 °F 94% 29.70 in 3.0 mi NNW 35.7 mph 44.9 mph N/A Rain Light Rain
12:28 PM 50.0 °F - 48.2 °F 94% 29.71 in 8.0 mi NNW 34.5 mph 47.2 mph N/A Rain Light Rain
12:38 PM 50.0 °F - 48.2 °F 94% 29.71 in 6.0 mi NNW 36.8 mph 44.9 mph N/A Rain Rain
12:40 PM 50.0 °F - 48.2 °F 94% 29.71 in 5.0 mi NNW 35.7 mph 48.3 mph N/A Rain Rain
12:58 PM 49.8 °F - 47.8 °F 93% 29.73 in 6.0 mi NNW 34.5 mph 44.9 mph 0.05 in Rain Light Rain
1:13 PM 50.0 °F - 48.2 °F 94% 29.72 in 8.0 mi NNW 36.8 mph 49.5 mph N/A Rain Light Rain
1:53 PM 50.0 °F - 48.2 °F 94% 29.73 in 8.0 mi NNW 32.2 mph 42.6 mph N/A Rain Light Rain
1:58 PM 50.2 °F - 48.2 °F 93% 29.74 in 8.0 mi NNW 35.7 mph 42.6 mph 0.04 in Rain Light Rain
2:03 PM 50.0 °F - 48.2 °F 94% 29.73 in 7.0 mi NNW 33.4 mph 43.7 mph N/A Rain Light Rain
2:13 PM 51.8 °F - 48.2 °F 88% 29.74 in 6.0 mi NNW 32.2 mph 41.4 mph N/A Rain Light Rain
2:19 PM 51.8 °F - 50.0 °F 94% 29.74 in 6.0 mi NNW 35.7 mph 42.6 mph N/A Rain Light Rain
2:24 PM 51.8 °F - 50.0 °F 94% 29.74 in 4.0 mi NNW 32.2 mph 44.9 mph N/A Rain Light Rain
2:58 PM 50.7 °F - 49.1 °F 94% 29.76 in 3.0 mi NNW 32.2 mph 43.7 mph 0.02 in Rain Rain
3:03 PM 50.0 °F - 48.2 °F 94% 29.75 in 2.0 mi NNW 34.5 mph 43.7 mph N/A Rain Rain
3:08 PM 50.0 °F - 48.2 °F 94% 29.75 in 2.0 mi NNW 29.9 mph 43.7 mph N/A Rain Light Rain
3:13 PM 50.0 °F - 50.0 °F 100% 29.75 in 4.0 mi NNW 33.4 mph 43.7 mph N/A Rain Light Rain
3:18 PM 50.0 °F - 50.0 °F 100% 29.75 in 8.0 mi NNW 32.2 mph 42.6 mph N/A Rain Light Rain
3:28 PM 50.0 °F - 48.2 °F 94% 29.75 in 8.0 mi NNW 34.5 mph 44.9 mph N/A Rain Light Rain
3:33 PM 50.0 °F - 48.2 °F 94% 29.75 in 5.0 mi NNW 32.2 mph 43.7 mph N/A Rain Light Rain
3:38 PM 50.0 °F - 48.2 °F 94% 29.75 in 5.0 mi NNW 31.1 mph 43.7 mph N/A Rain Light Rain
3:53 PM 50.0 °F - 48.2 °F 94% 29.75 in 5.0 mi NNW 34.5 mph 43.7 mph N/A Rain Light Rain
3:58 PM 50.0 °F - 48.2 °F 94% 29.76 in 9.0 mi NNW 35.7 mph 43.7 mph 0.02 in Rain Light Rain
4:10 PM 50.0 °F - 48.2 °F 94% 29.76 in 7.0 mi NNW 32.2 mph 47.2 mph N/A Rain Light Rain
4:20 PM 50.0 °F - 48.2 °F 94% 29.76 in 9.0 mi NNW 32.2 mph 41.4 mph N/A Rain Light Rain
4:24 PM 50.0 °F - 48.2 °F 94% 29.76 in 8.0 mi NNW 34.5 mph 43.7 mph N/A Rain Light Rain
4:39 PM 50.0 °F - 48.2 °F 94% 29.77 in 6.0 mi NNW 29.9 mph 42.6 mph N/A Rain Light Rain
4:54 PM 50.0 °F - 48.2 °F 94% 29.76 in 10.0 mi NNW 33.4 mph 44.9 mph N/A   Overcast
4:58 PM 50.0 °F - 48.2 °F 94% 29.77 in 10.0 mi NNW 35.7 mph 44.9 mph 0.00 in   Overcast
5:13 PM 50.0 °F - 46.4 °F 87% 29.76 in 10.0 mi NNW 33.4 mph 46.0 mph N/A   Overcast
5:28 PM 50.0 °F - 46.4 °F 87% 29.77 in 10.0 mi NNW 31.1 mph 44.9 mph N/A Rain Light Rain
5:48 PM 50.0 °F - 46.4 °F 87% 29.77 in 10.0 mi NNW 33.4 mph 41.4 mph N/A Rain Light Rain
5:58 PM 50.0 °F - 46.4 °F 87% 29.78 in 10.0 mi NNW 31.1 mph 40.3 mph 0.00 in Rain Light Rain
6:00 PM 50.0 °F - 46.4 °F 87% 29.77 in 10.0 mi NNW 32.2 mph 40.3 mph N/A   Mostly Cloudy
6:02 PM 50.0 °F - 46.4 °F 87% 29.77 in 10.0 mi NNW 31.1 mph 43.7 mph N/A   Squalls
6:06 PM 50.0 °F - 46.4 °F 87% 29.77 in 10.0 mi NNW 31.1 mph 43.7 mph N/A   Squalls
6:11 PM 50.0 °F - 46.4 °F 87% 29.77 in 9.0 mi NNW 31.1 mph 43.7 mph N/A Rain Light Rain
6:21 PM 50.0 °F - 46.4 °F 87% 29.78 in 4.0 mi NNW 25.3 mph 40.3 mph N/A Rain Light Rain
6:26 PM 50.0 °F - 46.4 °F 87% 29.78 in 6.0 mi NNW 28.8 mph 40.3 mph N/A Rain Light Rain
6:41 PM 50.0 °F - 46.4 °F 87% 29.78 in 8.0 mi NNW 29.9 mph 40.3 mph N/A Rain Light Rain
6:46 PM 50.0 °F - 46.4 °F 87% 29.79 in 10.0 mi NNW 25.3 mph 40.3 mph N/A Rain Light Rain
6:51 PM 50.0 °F - 46.4 °F 87% 29.79 in 10.0 mi NNW 26.5 mph 40.3 mph N/A Rain Light Rain
6:58 PM 49.5 °F - 47.1 °F 92% 29.80 in 10.0 mi NNW 29.9 mph 39.1 mph 0.01 in Rain Light Rain
7:58 PM 48.7 °F - 46.2 °F 91% 29.83 in 9.0 mi North 31.1 mph 38.0 mph 0.01 in Rain Light Rain
8:03 PM 48.2 °F - 44.6 °F 87% 29.82 in 10.0 mi North 24.2 mph 38.0 mph N/A Rain Light Rain
8:08 PM 48.2 °F - 44.6 °F 87% 29.82 in 10.0 mi North 23.0 mph - N/A Rain Light Rain
8:15 PM 48.2 °F - 46.4 °F 93% 29.82 in 10.0 mi North 23.0 mph 33.4 mph N/A Rain Light Rain
8:20 PM 48.2 °F - 46.4 °F 93% 29.81 in 10.0 mi NNW 25.3 mph 29.9 mph N/A Rain Light Rain
8:25 PM 48.2 °F - 44.6 °F 87% 29.82 in 10.0 mi NNW 24.2 mph - N/A Rain Light Rain
8:32 PM 46.4 °F 37.9 °F 44.6 °F 93% 29.82 in 10.0 mi NNW 25.3 mph 35.7 mph N/A Rain Light Rain
8:58 PM 47.3 °F - 45.1 °F 92% 29.84 in 10.0 mi NNW 25.3 mph 31.1 mph 0.01 in Rain Light Rain
9:03 PM 48.2 °F - 44.6 °F 87% 29.83 in 10.0 mi NNW 28.8 mph 34.5 mph N/A Rain Light Rain
9:13 PM 48.2 °F - 44.6 °F 87% 29.83 in 10.0 mi NNW 25.3 mph 36.8 mph N/A Rain Light Rain
9:25 PM 46.4 °F 37.4 °F 44.6 °F 93% 29.83 in 9.0 mi NNW 28.8 mph 36.8 mph N/A Rain Light Rain
9:30 PM 46.4 °F 37.9 °F 44.6 °F 93% 29.84 in 8.0 mi NNW 25.3 mph 36.8 mph N/A Rain Light Rain
9:35 PM 46.4 °F 37.5 °F 44.6 °F 93% 29.84 in 9.0 mi NNW 27.6 mph 36.8 mph N/A Rain Light Rain
9:40 PM 46.4 °F 37.5 °F 44.6 °F 93% 29.84 in 10.0 mi NNW 27.6 mph 34.5 mph N/A Rain Light Rain
9:41 PM 46.4 °F 37.5 °F 44.6 °F 93% 29.84 in 9.0 mi NNW 27.6 mph 34.5 mph N/A Rain Light Rain
9:46 PM 46.4 °F 37.9 °F 44.6 °F 93% 29.84 in 8.0 mi NNW 25.3 mph 33.4 mph N/A Rain Light Rain
9:58 PM 47.1 °F - 45.1 °F 93% 29.86 in 10.0 mi NNW 31.1 mph 39.1 mph 0.03 in Rain Light Rain
10:58 PM 46.8 °F - 44.6 °F 92% 29.87 in 10.0 mi NNW 24.2 mph 35.7 mph 0.01 in Rain Light Rain
10:59 PM 46.4 °F 37.7 °F 44.6 °F 93% 29.85 in 9.0 mi NNW 26.5 mph 35.7 mph N/A Rain Light Rain
11:15 PM 46.4 °F 37.2 °F 44.6 °F 93% 29.85 in 10.0 mi NNW 29.9 mph 34.5 mph N/A   Overcast
11:24 PM 46.4 °F 37.2 °F 44.6 °F 93% 29.84 in 10.0 mi NNW 29.9 mph 36.8 mph N/A Rain Light Rain
11:25 PM 46.4 °F 37.4 °F 44.6 °F 93% 29.85 in 10.0 mi NNW 28.8 mph 36.8 mph N/A Rain Light Rain
11:30 PM 46.4 °F 37.0 °F 44.6 °F 93% 29.84 in 8.0 mi NNW 31.1 mph 36.8 mph N/A Rain Light Rain
11:35 PM 46.4 °F 37.5 °F 44.6 °F 93% 29.85 in 8.0 mi NNW 27.6 mph 38.0 mph N/A Rain Light Rain
11:40 PM 46.4 °F 37.2 °F 44.6 °F 93% 29.84 in 10.0 mi NNW 29.9 mph 38.0 mph N/A   Overcast
11:42 PM 46.4 °F 37.2 °F 44.6 °F 93% 29.84 in 10.0 mi NNW 29.9 mph 38.0 mph N/A Rain Light Rain
11:48 PM 46.4 °F 37.0 °F 44.6 °F 93% 29.84 in 10.0 mi NNW 31.1 mph 40.3 mph N/A Rain Light Rain
11:53 PM 46.4 °F 37.0 °F 42.8 °F 87% 29.84 in 10.0 mi NNW 31.1 mph 42.6 mph N/A Rain Light Rain
11:58 PM 46.9 °F - 43.7 °F 88% 29.87 in 10.0 mi NNW 27.6 mph 42.6 mph 0.01 in Rain Light Rain